Vertical_Velocity
-0 1 1 1 3 3 -0 4 1 19 -0 -4 3 -2 -3 1 2 0 0 -1 -0 1
2 1 4 1 -3 1 1 1 -1 4 3 2 0 2 -0 -2 4 -1 -0 -1 -1 2
-3 0 3 4 2 1 1 1 1 4 -1 2 -1 4 1 -3 2 -0 -0 -1 -1 1
0 0 3 4 5 -1 3 4 0 3 3 2 5 -1 1 0 2 0 -0 -0 -0 2
-2 -1 -1 3 3 2 -0 1 6 -0 -1 3 -1 -2 4 1 2 1 -1 1 1 1
-0 1 -1 2 3 -2 -2 1 2 2 2 1 1 1 2 4 -3 3 -1 1 2 2
-3 -2 -4 -1 1 2 -1 0 5 2 0 -0 5 1 5 5 0 -2 0 -1 1 2
-1 -3 -2 -2 -1 -0 -1 -1 -1 -1 -2 -0 -1 -2 2 -0 8 -3 -1 1 -1 1
-1 -2 -1 1 -1 -1 -1 -1 1 -6 60 0 -0 1 2 -0 4 1 -4 -2 -1 1
-0 -2 -1 1 2 -2 -1 1 0 -1 -2 -0 -2 9 35 7 11 2 -5 -0 -1 1
-0 -1 -0 1 2 2 1 -0 -0 -1 -2 0 -6 0 28 15 -2 -1 2 1 2 2
2 3 2 1 2 0 1 -0 -0 0 2 -1 2 1 10 33 -2 -5 1 4 5 6
1 0 -0 1 2 3 1 3 2 0 -1 0 35 4 22 8 -2 -3 -1 5 4 2
-0 2 2 1 -0 1 1 1 -1 0 2 -3 4 7 7 14 19 34 8 -3 2 3
Height
5687 5691 5695 5697 5700 5701 5702 5704 5706 5707 5709 5710 5710 5713 5712 5715 5717 5717 5716 5717 5717 5716
5676 5681 5685 5687 5688 5692 5693 5697 5698 5699 5700 5701 5702 5702 5704 5706 5707 5708 5708 5709 5709 5709
5663 5669 5674 5677 5679 5683 5684 5684 5687 5688 5689 5691 5691 5692 5695 5696 5698 5699 5699 5701 5702 5702
5652 5657 5662 5666 5669 5670 5673 5674 5675 5677 5678 5680 5681 5683 5685 5686 5688 5689 5690 5692 5693 5694
5642 5645 5649 5654 5657 5660 5661 5662 5664 5665 5666 5670 5672 5673 5674 5675 5677 5679 5680 5683 5684 5686
5632 5635 5637 5641 5645 5648 5650 5652 5654 5655 5656 5659 5661 5662 5663 5664 5665 5668 5671 5673 5675 5677
5622 5624 5626 5628 5632 5636 5639 5640 5642 5643 5644 5647 5650 5651 5652 5652 5653 5656 5660 5663 5665 5667
5611 5612 5615 5617 5619 5623 5626 5629 5631 5633 5635 5636 5638 5639 5640 5641 5643 5644 5649 5652 5655 5657
5600 5601 5603 5606 5608 5611 5614 5617 5620 5622 5617 5623 5626 5629 5629 5628 5631 5632 5635 5640 5644 5647
5590 5591 5593 5595 5597 5599 5601 5604 5607 5611 5612 5613 5617 5616 5616 5615 5619 5622 5626 5628 5632 5636
5581 5581 5582 5584 5585 5587 5589 5591 5595 5598 5600 5603 5605 5607 5603 5607 5610 5611 5613 5617 5622 5625
5574 5574 5574 5574 5575 5577 5579 5581 5583 5585 5588 5591 5592 5594 5594 5596 5597 5601 5601 5605 5611 5614
5569 5568 5567 5566 5566 5568 5570 5571 5573 5574 5576 5578 5577 5576 5582 5582 5585 5589 5591 5593 5596 5600
5564 5563 5561 5559 5559 5559 5560 5561 5562 5564 5566 5568 5567 5568 5571 5573 5573 5574 5577 5581 5584 5587